COSMOS 252 DEB, 3565

Orbit data source: Space-Track

COSMOS 252 DEB, 3565 is space debris in LEO originally from a launch on Fri, 01 Nov 1968 UTC launched from the Tyuratam Missile And Space Complex (TTMTR). Debris objects in space refer to the collection of defunct objects orbiting the Earth. Examples of debris include non-operational satellites, rocket bodies, and fragments generated from explosions, collisions, or faulty payload assembly.

Loading next visibility...
Identifier
3565, 1968-097R
Orbit
LEO
Country
Flag of CISCIS
Related business
Manufacturer
Unknown
Mission
Spacecraft
Bus & Motor
Unknown
Mass
Unknown
Launch date (UTC)
1968-11-01 (58 years ago)
Launch vehicle
Unknown
Launch site
Tyuratam Missile And Space Complex (TTMTR)
Object type
Payload
Rocket body
Debris
Shape & HBR
Unknown shape, 0.1 m
Radar Cross Section
Medium (>0.1 m² and <1 m²)

Expand to show TLE details & history
Last TLE update: 2 days ago

TLE from 2 days ago
0 COSMOS 252 DEB
1 03565U 68097R   26172.78113218  .00001758  00000-0  34541-3 0  9999
2 03565  62.2850 340.7573 0394981 251.2960 104.4849 14.26629904844012
Epoch: 2026-06-21T18:44Z
TLE epoch observation values (Epoch: 2026-06-21T18:44:49.820Z)
Latitude
0.00006°
Longitude
149.57327°
Altitude
886.044 km
Speed
7.368 km/s
True Right ascension
22h 43m 01s
True Declination
0° 00' 00"
Sunlit
Object was in daylight at epoch
Visualization orbit readout
Latitude
Unknown
Longitude
Unknown
Altitude
Unknown
Speed
Unknown
Apparent Right ascension
Unknown
Apparent Declination
Unknown
Sunlit
N/A
Visualization observer readout
Local Sidereal Time
14:04:14
Azimuth
Unknown
Elevation
Unknown
Doppler factor
Unknown
Orbital elements
Apogee altitude
1,085.543 km
Perigee altitude
518.344 km
Semi-major axis
7,180.08 km
Eccentricity
0.0395
Inclination
62.285°
RAAN
340.7573°
Arg. of periapsis
251.296°
True anomaly
108.80959°
Mean anomaly
104.4849°
Eccentric anomaly
106.65306°
Mean motion
3.56738 °/min
Orbital period
100.91 mins
BSTAR
0.00034541

Documentation

Showing up to 5 results
|